Madrid, El Salvador

12:20 PM CEST on 六月 23, 2017 (GMT +0200)
Madrid-Barajas Airport

天気 に付いての歴史 LEMD - 三月, 2017

Change the Weather History Date:

月曜日, 三月 20, 2017

  Actual Average Record
Temperature  
平均温度 60 °F -  
最高温度 75 °F 62 °F 75 °F (1998)
最低温度 44 °F 41 °F 32 °F (2007)
Degree Days  
暖房度日 6    
Growing Degree Days 10 (Base 50)    
Moisture  
露点温度 38 °F    
Average Humidity 45    
Maximum Humidity 76    
Minimum Humidity 16    
降水確率  
降水確率 0.00 インチ 0.05 インチ - ()
海面圧  
海面圧 29.95 インチ    
 
風速 4 Mph ()    
最大風速 15 Mph    
Max Gust Speed 22 Mph    
視程 19.0 マイル    
イベント      
Averages and records for this station are not official NWS values.
T = Trace of Precipitation, MM = Missing Value Source: Averaged Metar Reports

Daily Weather History Graph

Daily Weather History Graph

Search for Another Location

Airport or City:

Trip Planner

Search our weather history database for the weather conditions in past years. The results will help you decide how hot, cold, wet, or windy it might be!

Date:

天文

Mar. 20, 2017 入り
実時間 7:17 AM CET 7:26 PM CET
常用薄明 6:50 AM CET 7:53 PM CET
航海薄明 6:18 AM CET 8:25 PM CET
天文薄明 5:46 AM CET 8:57 PM CET
1:58 AM CET (3/20) 12:04 PM CET (3/20)
可視光の長さ 13h 03m
可照時間
12h 08m
十八夜, 52% of the Moon is Illuminated
3月 20
十八夜
3月 20
第 4 四半期
3月 28
新しい
4月 3
上弦
4月 11
満月

Hourly Weather History & Observations

時間 (CET) 温度 体感気温(寒さ) 露点温度 湿度 気圧 視程 Wind Dir 風速 突風の速度 Precip イベント 現在の気象状況
12:00 AM 53 °F - 39 °F 47% 29.99 インチ 19 マイル 北西 4.6 Mph - -  
12:00 AM 53.6 °F - 39.2 °F 58% 29.98 インチ - 北北西 3.5 Mph - N/A  
12:30 AM 50.0 °F - 39.2 °F 66% 29.98 インチ - 北北東 5.8 Mph - N/A  
1:00 AM 49 °F - 37 °F 54% 30.00 インチ 19 マイル 北北西 4.6 Mph - -  
1:00 AM 51.8 °F - 37.4 °F 58% 29.98 インチ - 北北西 3.5 Mph - N/A  
1:30 AM 50.0 °F - 35.6 °F 58% 29.98 インチ - 変数 1.2 Mph - N/A  
2:00 AM 48 °F - 36 °F 53% 29.99 インチ 19 マイル 北北西 2.3 Mph - -  
2:00 AM 48.2 °F - 35.6 °F 62% 29.98 インチ - 北北西 3.5 Mph - N/A  
2:30 AM 48.2 °F - 35.6 °F 62% 29.98 インチ - 3.5 Mph - N/A  
3:00 AM 46 °F - 35 °F 56% 30.00 インチ 19 マイル 北北西 2.3 Mph - -  
3:00 AM 48.2 °F - 35.6 °F 62% 29.95 インチ - 2.3 Mph - N/A  
3:30 AM 48.2 °F - 35.6 °F 62% 29.95 インチ - 北西 4.6 Mph - N/A  
4:00 AM 46 °F - 36 °F 58% 29.99 インチ 19 マイル 北北西 4.6 Mph - -  
4:30 AM 46.4 °F 44.3 °F 35.6 °F 66% 29.95 インチ - 北西 4.6 Mph - N/A  
5:00 AM 45 °F - 36 °F 61% 29.99 インチ 19 マイル 北北西 4.6 Mph - -  
5:00 AM 46.4 °F 45.2 °F 35.6 °F 66% 29.95 インチ - 北北西 3.5 Mph - N/A  
5:30 AM 46.4 °F - 35.6 °F 66% 29.95 インチ - 変数 2.3 Mph - N/A  
6:00 AM 45 °F - 36 °F 62% 30.00 インチ 19 マイル 北北西 3.5 Mph - -  
6:00 AM 46.4 °F - 35.6 °F 66% 29.95 インチ - 北北西 2.3 Mph - N/A  
6:30 AM 44.6 °F - 35.6 °F 71% 29.98 インチ - 2.3 Mph - N/A  
7:00 AM 46.4 °F 45.2 °F 35.6 °F 66% 29.98 インチ - 3.5 Mph - N/A  
7:30 AM 44.6 °F 43.1 °F 35.6 °F 71% 29.98 インチ - 3.5 Mph - N/A  
8:00 AM 44 °F - 36 °F 66% 30.03 インチ 19 マイル 北西 2.3 Mph - -   所により曇
8:00 AM 44.6 °F - 35.6 °F 71% 29.98 インチ - 北北西 2.3 Mph - N/A  
8:30 AM 44.6 °F 43.1 °F 37.4 °F 76% 29.98 インチ - 3.5 Mph - N/A  
9:00 AM 47 °F - 40 °F 69% 30.02 インチ 19 マイル 2.3 Mph - -  
9:00 AM 48.2 °F - 39.2 °F 71% 29.98 インチ - 変数 2.3 Mph - N/A  
9:30 AM 50.0 °F - 41.0 °F 71% 29.98 インチ - 1.2 Mph - N/A  
10:00 AM 53 °F - 40 °F 51% 30.00 インチ 19 マイル 1.2 Mph - -  
10:00 AM 53.6 °F - 39.2 °F 58% 30.01 インチ - 変数 1.2 Mph - N/A  
10:30 AM 57.2 °F - 41.0 °F 55% 30.01 インチ - 変数 2.3 Mph - N/A  
11:00 AM 59 °F - 43 °F 45% 29.97 インチ 19 マイル 南南西 2.3 Mph - -  
11:00 AM 59.0 °F - 41.0 °F 51% 29.98 インチ - 南西 1.2 Mph - N/A  
11:30 AM 62.6 °F - 42.8 °F 48% 29.98 インチ - 変数 2.3 Mph - N/A  
12:00 PM 64.4 °F - 41.0 °F 42% 29.98 インチ - 南南東 3.5 Mph - N/A  
12:30 PM 68.0 °F - 39.2 °F 35% 29.98 インチ - 3.5 Mph - N/A  
1:00 PM 69.8 °F - 41.0 °F 35% 29.98 インチ - 4.6 Mph - N/A  
1:30 PM 71.6 °F - 39.2 °F 31% 29.95 インチ - 南南東 4.6 Mph - N/A  
2:00 PM 72 °F - 41 °F 22% 29.88 インチ 19 マイル 南南東 4.6 Mph - -  
2:00 PM 71.6 °F - 37.4 °F 29% 29.95 インチ - 変数 3.5 Mph - N/A  
2:30 PM 73.4 °F - 42.8 °F 33% 29.95 インチ - 南南東 5.8 Mph - N/A  
3:00 PM 73 °F - 40 °F 20% 29.85 インチ 19 マイル 西南西 8.1 Mph - -  
3:00 PM 73.4 °F - 39.2 °F 29% 29.95 インチ - 南南西 6.9 Mph - N/A  
3:30 PM 75.2 °F - 37.4 °F 25% 29.92 インチ - 南南西 4.6 Mph - N/A  
4:00 PM 75 °F - 41 °F 19% 29.83 インチ 19 マイル 西南西 4.6 Mph - -  
4:00 PM 75.2 °F - 39.2 °F 27% 29.92 インチ - 西南西 3.5 Mph 16.1 Mph N/A  
4:30 PM 75.2 °F - 33.8 °F 22% 29.92 インチ - 南南西 5.8 Mph - N/A  
5:00 PM 76 °F - 39 °F 16% 29.82 インチ 19 マイル 南西 4.6 Mph - -  
5:00 PM 77.0 °F - 37.4 °F 24% 29.92 インチ - 西 2.3 Mph 13.8 Mph N/A  
5:30 PM 75.2 °F - 37.4 °F 25% 29.92 インチ - 南西 9.2 Mph - N/A  
6:00 PM 74 °F - 40 °F 19% 29.83 インチ 19 マイル 南西 9.2 Mph - -  
6:00 PM 75.2 °F - 37.4 °F 25% 29.92 インチ - 南西 8.1 Mph - N/A  
6:30 PM 75.2 °F - 39.2 °F 27% 29.92 インチ - 南西 10.4 Mph - N/A  
7:00 PM 71 °F - 42 °F 24% 29.84 インチ 19 マイル 南西 15.0 Mph - -  
7:00 PM 73.4 °F - 41.0 °F 31% 29.92 インチ - 南南西 12.7 Mph - N/A  
7:30 PM 71.6 °F - 39.2 °F 31% 29.92 インチ - 南西 12.7 Mph - N/A  
8:00 PM 68 °F - 43 °F 29% 29.87 インチ 19 マイル 南西 12.7 Mph - -  
8:00 PM 69.8 °F - 41.0 °F 35% 29.92 インチ - 南西 10.4 Mph 21.9 Mph N/A  
8:30 PM 68.0 °F - 42.8 °F 40% 29.92 インチ - 西南西 10.4 Mph - N/A  
9:00 PM 66 °F - 44 °F 33% 29.89 インチ 19 マイル 西南西 8.1 Mph - -  
9:00 PM 68.0 °F - 42.8 °F 40% 29.95 インチ - 西南西 8.1 Mph - N/A  
9:30 PM 66.2 °F - 41.0 °F 40% 29.95 インチ - 西 6.9 Mph - N/A  
10:00 PM 64 °F - 39 °F 28% 29.91 インチ 19 マイル 西 8.1 Mph - -  
10:00 PM 66.2 °F - 39.2 °F 37% 29.95 インチ - 西 6.9 Mph - N/A  
10:30 PM 66.2 °F - 35.6 °F 32% 29.95 インチ - 西南西 8.1 Mph - N/A  
11:00 PM 61 °F - 36 °F 28% 29.93 インチ 19 マイル 西北西 3.5 Mph - -  
11:00 PM 62.6 °F - 35.6 °F 37% 29.95 インチ - 西 1.2 Mph - N/A  
11:30 PM 62.6 °F - 37.4 °F 39% 29.95 インチ - 西南西 11.5 Mph - N/A